Powrót do katalogu

TOS R/B

AktywnyGTO
NORAD 22797·ROCKET BODY·🇺🇸 United States

Wystrzelony Sep 12, 1993 z Cape Canaveral Space Force Station

Loading…

TLE

NieaktualneSource: Space-Track

Epoka: Sep 14, 2026, 03:39 UTC

1 22797U 93058D   26257.15218310  .00001155  00000-0  16792-2 0  9994
2 22797  15.3394  31.7010 7365816 151.1132 286.1826  2.13552188250292

Śledź TOS R/B w czasie rzeczywistym z AllMySat

Download on the App Store